• In Belarus
  • List of Countries
  • For 7 days
  • Water Temperature
  • Satellite Maps
  • Weather Map
  • Weather Widgets
  • user-avatar
    Login

    Hourly Weather Sliznevo

    Today, 19 June, Tuesday

    Time Temperature Precipitation Wind Pressure Humidity
    00:00 +18°C° 0 mm 1 mps 744 mmHg 80%
    01:00 +16°C° 0 mm 1 mps 744 mmHg 81%
    02:00 +16°C° 0 mm 2 mps 744 mmHg 81%
    03:00 +16°C° 0 mm 2 mps 744 mmHg 82%
    04:00 +16°C° 0 mm 2 mps 744 mmHg 84%
    05:00 +16°C° 0 mm 2 mps 744 mmHg 85%
    06:00 +18°C° 0 mm 2 mps 744 mmHg 81%
    07:00 +20°C° 0 mm 2 mps 744 mmHg 77%
    08:00 +21°C° 0 mm 2 mps 744 mmHg 74%
    09:00 +24°C° 0.2 mm 2 mps 744 mmHg 71%
    10:00 +25°C° 0.2 mm 3 mps 744 mmHg 68%
    11:00 +26°C° 0.2 mm 3 mps 744 mmHg 65%
    12:00 +26°C° 0.5 mm 3 mps 744 mmHg 66%
    13:00 +26°C° 0.5 mm 3 mps 743 mmHg 68%
    14:00 +26°C° 0.5 mm 4 mps 743 mmHg 69%
    15:00 +25°C° 0.4 mm 4 mps 743 mmHg 72%
    16:00 +25°C° 0.4 mm 3 mps 742 mmHg 74%
    17:00 +25°C° 0.4 mm 3 mps 742 mmHg 77%
    18:00 +22°C° 0.2 mm 3 mps 742 mmHg 81%
    19:00 +21°C° 0.2 mm 3 mps 742 mmHg 84%
    20:00 +20°C° 0.2 mm 3 mps 742 mmHg 88%
    21:00 +19°C° 0 mm 3 mps 742 mmHg 88%
    22:00 +18°C° 0 mm 3 mps 742 mmHg 89%
    23:00 +17°C° 0 mm 3 mps 742 mmHg 89%

    Tomorrow, 20 June, Wednesday

    Time Temperature Precipitation Wind Pressure Humidity
    00:00 +15°C° 0 mm 4 mps 743 mmHg 90%
    01:00 +15°C° 0 mm 4 mps 743 mmHg 91%
    02:00 +14°C° 0 mm 4 mps 743 mmHg 92%
    03:00 +14°C° 0 mm 4 mps 744 mmHg 91%
    04:00 +13°C° 0 mm 3 mps 744 mmHg 91%
    05:00 +13°C° 0 mm 3 mps 744 mmHg 91%
    06:00 +14°C° 0 mm 3 mps 745 mmHg 84%
    07:00 +15°C° 0 mm 4 mps 745 mmHg 77%
    08:00 +17°C° 0 mm 4 mps 745 mmHg 70%
    09:00 +18°C° 0 mm 4 mps 745 mmHg 66%
    10:00 +19°C° 0 mm 5 mps 745 mmHg 63%
    11:00 +20°C° 0 mm 5 mps 745 mmHg 60%
    12:00 +21°C° 0 mm 5 mps 745 mmHg 59%
    13:00 +21°C° 0 mm 5 mps 745 mmHg 59%
    14:00 +22°C° 0 mm 6 mps 745 mmHg 59%
    15:00 +22°C° 0 mm 5 mps 744 mmHg 61%
    16:00 +22°C° 0 mm 5 mps 744 mmHg 63%
    17:00 +22°C° 0 mm 4 mps 744 mmHg 65%
    18:00 +20°C° 0 mm 4 mps 744 mmHg 69%
    19:00 +19°C° 0 mm 4 mps 744 mmHg 73%
    20:00 +17°C° 0 mm 3 mps 744 mmHg 77%
    21:00 +16°C° 0 mm 3 mps 744 mmHg 79%
    22:00 +14°C° 0 mm 3 mps 745 mmHg 80%
    23:00 +13°C° 0 mm 3 mps 745 mmHg 82%

    Day after tomorrow, 21 June, Thursday

    Time Temperature Precipitation Wind Pressure Humidity
    00:00 +12°C° 0 mm 3 mps 745 mmHg 84%
    01:00 +12°C° 0 mm 3 mps 745 mmHg 87%
    02:00 +12°C° 0 mm 2 mps 745 mmHg 89%
    03:00 +12°C° 0 mm 2 mps 745 mmHg 89%
    04:00 +13°C° 0 mm 2 mps 745 mmHg 88%
    05:00 +13°C° 0 mm 2 mps 745 mmHg 88%
    06:00 +13°C° 0 mm 3 mps 745 mmHg 82%
    07:00 +16°C° 0 mm 3 mps 745 mmHg 75%
    08:00 +18°C° 0 mm 4 mps 745 mmHg 69%
    09:00 +19°C° 0 mm 4 mps 745 mmHg 67%
    10:00 +20°C° 0 mm 4 mps 745 mmHg 65%
    11:00 +22°C° 0 mm 5 mps 745 mmHg 63%
    12:00 +22°C° 0 mm 5 mps 744 mmHg 64%
    13:00 +23°C° 0 mm 5 mps 744 mmHg 64%
    14:00 +25°C° 0 mm 5 mps 744 mmHg 65%
    15:00 +25°C° 0 mm 4 mps 743 mmHg 66%
    16:00 +25°C° 0 mm 4 mps 743 mmHg 68%
    17:00 +25°C° 0 mm 3 mps 743 mmHg 69%
    18:00 +24°C° 0 mm 3 mps 742 mmHg 75%
    19:00 +21°C° 0 mm 3 mps 742 mmHg 80%
    20:00 +20°C° 0 mm 3 mps 742 mmHg 85%
    21:00 +19°C° 0 mm 3 mps 742 mmHg 85%
    22:00 +18°C° 0 mm 3 mps 741 mmHg 85%
    23:00 +17°C° 0 mm 4 mps 741 mmHg 85%

    22 June, Friday

    Time Temperature Precipitation Wind Pressure Humidity
    00:00 +17°C° 0 mm 4 mps 741 mmHg 83%
    01:00 +17°C° 0 mm 4 mps 740 mmHg 80%
    02:00 +16°C° 0 mm 5 mps 740 mmHg 78%
    03:00 +16°C° 0 mm 5 mps 739 mmHg 80%
    04:00 +16°C° 0 mm 5 mps 739 mmHg 81%
    05:00 +16°C° 0 mm 5 mps 738 mmHg 82%
    06:00 +19°C° 0 mm 6 mps 738 mmHg 80%
    07:00 +20°C° 0 mm 7 mps 737 mmHg 78%
    08:00 +22°C° 0 mm 8 mps 737 mmHg 76%
    09:00 +22°C° 0.2 mm 8 mps 737 mmHg 77%
    10:00 +23°C° 0.2 mm 8 mps 737 mmHg 77%
    11:00 +24°C° 0.2 mm 8 mps 737 mmHg 78%
    12:00 +22°C° 1.1 mm 7 mps 737 mmHg 81%
    13:00 +21°C° 1.1 mm 7 mps 737 mmHg 85%
    14:00 +20°C° 1.1 mm 6 mps 737 mmHg 88%
    15:00 +17°C° 0.7 mm 5 mps 738 mmHg 90%
    16:00 +15°C° 0.7 mm 4 mps 738 mmHg 92%
    17:00 +13°C° 0.7 mm 3 mps 738 mmHg 94%
    18:00 +13°C° 0.2 mm 2 mps 739 mmHg 95%
    19:00 +13°C° 0.2 mm 2 mps 739 mmHg 95%
    20:00 +13°C° 0.2 mm 2 mps 739 mmHg 96%
    21:00 +13°C° 0.2 mm 2 mps 739 mmHg 96%
    22:00 +13°C° 0.2 mm 2 mps 739 mmHg 96%
    23:00 +12°C° 0.2 mm 2 mps 739 mmHg 97%

    23 June, Saturday

    Time Temperature Precipitation Wind Pressure Humidity
    00:00 +12°C° 0.4 mm 2 mps 740 mmHg 97%
    01:00 +12°C° 0.4 mm 2 mps 740 mmHg 97%
    02:00 +12°C° 0.4 mm 2 mps 740 mmHg 97%
    03:00 +12°C° 0.3 mm 2 mps 740 mmHg 97%
    04:00 +12°C° 0.3 mm 1 mps 740 mmHg 97%
    05:00 +12°C° 0.3 mm 1 mps 740 mmHg 97%
    06:00 +12°C° 0.5 mm 1 mps 740 mmHg 97%
    07:00 +13°C° 0.5 mm 1 mps 740 mmHg 97%
    08:00 +13°C° 0.5 mm 1 mps 740 mmHg 96%
    09:00 +13°C° 0.7 mm 1 mps 740 mmHg 96%
    10:00 +13°C° 0.7 mm 1 mps 740 mmHg 95%
    11:00 +13°C° 0.7 mm 1 mps 740 mmHg 94%
    12:00 +13°C° 0.3 mm 1 mps 740 mmHg 92%
    13:00 +14°C° 0.3 mm 1 mps 740 mmHg 91%
    14:00 +14°C° 0.3 mm 1 mps 740 mmHg 90%
    15:00 +14°C° 0.3 mm 1 mps 740 mmHg 91%
    16:00 +14°C° 0.3 mm 1 mps 740 mmHg 91%
    17:00 +14°C° 0.3 mm 1 mps 740 mmHg 92%
    18:00 +13°C° 0.1 mm 1 mps 740 mmHg 93%
    19:00 +13°C° 0.1 mm 1 mps 740 mmHg 95%
    20:00 +12°C° 0.1 mm 1 mps 740 mmHg 96%
    21:00 +12°C° 0 mm 2 mps 740 mmHg 96%
    22:00 +10°C° 0 mm 2 mps 740 mmHg 96%
    23:00 +9°C° 0 mm 2 mps 740 mmHg 96%

    24 June, Sunday

    Time Temperature Precipitation Wind Pressure Humidity
    00:00 +9°C° 0 mm 2 mps 740 mmHg 96%
    01:00 +8°C° 0 mm 2 mps 740 mmHg 96%
    02:00 +8°C° 0 mm 2 mps 740 mmHg 96%
    03:00 +8°C° 0 mm 2 mps 740 mmHg 96%
    04:00 +8°C° 0 mm 2 mps 740 mmHg 96%
    05:00 +9°C° 0 mm 2 mps 740 mmHg 96%
    06:00 +10°C° 0 mm 2 mps 741 mmHg 92%
    07:00 +13°C° 0 mm 2 mps 741 mmHg 88%
    08:00 +14°C° 0 mm 3 mps 741 mmHg 84%
    09:00 +16°C° 0.1 mm 3 mps 741 mmHg 79%
    10:00 +17°C° 0.1 mm 4 mps 741 mmHg 75%
    11:00 +18°C° 0.1 mm 4 mps 742 mmHg 70%
    12:00 +18°C° 0.3 mm 4 mps 742 mmHg 69%
    13:00 +19°C° 0.3 mm 4 mps 742 mmHg 68%
    14:00 +19°C° 0.3 mm 4 mps 742 mmHg 68%
    15:00 +19°C° 0.2 mm 4 mps 742 mmHg 68%
    16:00 +19°C° 0.2 mm 4 mps 743 mmHg 68%
    17:00 +19°C° 0.2 mm 3 mps 743 mmHg 69%
    18:00 +17°C° 0 mm 3 mps 743 mmHg 74%
    19:00 +16°C° 0 mm 2 mps 743 mmHg 80%
    20:00 +14°C° 0 mm 2 mps 743 mmHg 85%
    21:00 +13°C° 0 mm 2 mps 744 mmHg 88%
    22:00 +12°C° 0 mm 2 mps 744 mmHg 90%
    23:00 +10°C° 0 mm 2 mps 744 mmHg 92%
    Show more